CWLEESTJE Weather Reports


Display with metric or nautical units.
time (UTC)temp
F
wind
direction
speed
MPH
gust
MPH
rain 1hr
in
rain 24hr
in
rain mn
in
humidity
%
barometer
mb
20260831164539 69 246 15.0 25.0 0.00 2.32 0.19 76
20260831163532 69 273 12.0 19.0 0.00 2.32 0.19 76
20260831162536 69 284 9.0 13.0 0.00 2.32 0.19 75
20260831161529 69 296 9.0 14.0 0.00 2.32 0.19 74
20260831160528 70 264 11.0 19.0 0.00 2.32 0.19 72
20260831155600 70 281 12.0 19.0 0.00 2.32 0.19 70
20260831154553 72 279 11.0 15.0 0.00 2.32 0.19 68
20260831153536 72 305 14.0 22.0 0.00 2.32 0.19 68
20260831152609 71 285 13.0 22.0 0.00 2.32 0.19 70
20260831151532 70 292 14.0 22.0 0.00 2.32 0.19 70
20260831150542 70 284 13.0 22.0 0.00 2.32 0.19 71
20260831145524 71 263 15.0 26.0 0.00 2.32 0.19 70
20260831144527 70 271 15.0 26.0 0.00 2.32 0.19 71
20260831143539 71 292 16.0 27.0 0.00 2.32 0.19 70
20260831142524 71 288 19.0 27.0 0.00 2.32 0.19 71
20260831141538 70 293 14.0 24.0 0.00 2.32 0.19 71
20260831140552 71 285 18.0 28.0 0.00 2.32 0.19 69
20260831135535 72 281 17.0 26.0 0.00 2.32 0.19 70
20260831134535 71 300 13.0 26.0 0.00 2.32 0.19 70
20260831133526 70 273 18.0 28.0 0.00 2.32 0.19 71
20260831132600 69 271 18.0 26.0 0.00 2.32 0.19 72
20260831131543 70 286 16.0 26.0 0.00 2.32 0.19 73
20260831130527 69 294 18.0 29.0 0.00 2.32 0.19 74
20260831125541 68 265 16.0 25.0 0.00 2.32 0.19 76
20260831124525 67 273 13.0 23.0 0.00 2.32 0.19 76
20260831123539 68 285 12.0 24.0 0.00 2.32 0.19 77
20260831122539 69 287 15.0 23.0 0.00 2.32 0.19 77
20260831121532 67 278 10.0 18.0 0.00 2.32 0.19 79
20260831120536 67 249 15.0 23.0 0.00 2.32 0.19 79
20260831115529 66 304 14.0 21.0 0.00 2.32 0.19 78
20260831114531 67 273 11.0 23.0 0.00 2.32 0.19 77
20260831113525 67 279 17.0 29.0 0.04 2.32 0.19 76
20260831112549 66 273 17.0 25.0 0.08 2.32 0.19 78
20260831111536 65 287 16.0 23.0 0.08 2.32 0.19 79
20260831110549 66 262 14.0 22.0 0.08 2.32 0.19 84
20260831105555 64 238 16.0 24.0 0.08 2.32 0.19 87
20260831104527 63 248 15.0 26.0 0.12 2.32 0.19 87
20260831103532 64 249 19.0 26.0 0.16 2.28 0.18 85
20260831102544 65 261 16.0 24.0 0.16 2.24 0.17 87
20260831101550 64 229 16.0 24.0 0.16 2.24 0.17 89
20260831100537 64 202 18.0 23.0 0.20 2.24 0.17 90
20260831095550 62 360 15.0 24.0 0.28 2.24 0.17 92
20260831094553 62 288 9.0 13.0 0.47 2.20 0.17 90
20260831093605 62 253 13.0 20.0 0.39 2.13 0.15 90
20260831092529 62 226 11.0 29.0 0.35 2.09 0.14 90
20260831091543 62 211 13.0 24.0 0.35 2.09 0.14 91
20260831090526 62 259 7.0 12.0 0.31 2.05 0.13 91
20260831085535 61 254 9.0 25.0 0.24 1.97 0.12 90
20260831084538 62 209 17.0 24.0 0.00 1.73 0.07 91
20260831083532 62 230 12.0 22.0 0.00 1.73 0.07 91
20260831082536 60 242 13.0 18.0 0.08 1.73 0.07 92
20260831081549 59 228 14.0 19.0 0.08 1.73 0.07 91
20260831080552 59 222 13.0 19.0 0.12 1.73 0.07 91
20260831075525 59 236 13.0 21.0 0.31 1.73 0.07 91
20260831074530 59 360 14.0 21.0 0.35 1.73 0.07 91
20260831073540 60 214 13.0 21.0 0.35 1.73 0.07 91
20260831072525 60 199 13.0 23.0 0.28 1.65 0.06 91
20260831071538 60 360 12.0 18.0 0.28 1.65 0.06 90
20260831070542 60 360 14.0 22.0 0.24 1.61 0.05 90
20260831065534 60 213 13.0 23.0 0.04 1.42 0.01 89
20260831064539 61 360 14.0 23.0 0.00 1.38 0.00 89
20260831063552 61 360 15.0 22.0 0.00 1.38 0.00 89
20260831062536 60 211 14.0 22.0 0.00 1.38 0.00 89
20260831061545 60 360 19.0 26.0 0.00 1.38 0.00 89
20260831060528 60 205 16.0 29.0 0.00 1.38 0.00 89
20260831055543 61 360 17.0 30.0 0.00 1.38 0.00 89
20260831054545 61 360 18.0 27.0 0.00 1.38 0.00 88
20260831053538 61 205 21.0 28.0 0.00 1.38 0.00 88
20260831052543 61 217 20.0 28.0 0.00 1.38 0.00 88
20260831051537 61 213 14.0 22.0 0.00 1.38 0.00 88
20260831050538 61 360 14.0 21.0 0.00 1.38 0.00 89
20260831045551 60 197 15.0 22.0 0.00 1.46 0.00 89
20260831044536 61 360 14.0 20.0 0.00 1.46 0.00 88
20260831043549 61 209 13.0 22.0 0.00 1.46 0.00 88
20260831042533 61 178 14.0 24.0 0.00 1.46 0.00 88
20260831041547 61 219 16.0 24.0 0.00 1.46 0.00 88
20260831040531 61 194 14.0 21.0 0.00 1.46 0.00 88
20260831035535 61 360 15.0 22.0 0.00 1.50 0.00 89
20260831034529 61 360 12.0 21.0 0.00 1.50 0.00 89
20260831033530 60 360 13.0 20.0 0.00 1.50 0.00 89
20260831032542 60 188 12.0 20.0 0.00 1.50 0.00 89
20260831031526 60 196 10.0 20.0 0.00 1.50 0.00 89
20260831030541 60 175 11.0 18.0 0.00 1.50 0.00 90
20260831025543 60 213 13.0 18.0 0.00 1.50 0.00 90
20260831024536 60 207 11.0 16.0 0.00 1.50 0.00 90
20260831023540 60 211 12.0 18.0 0.00 1.50 0.00 90
20260831022525 60 183 9.0 13.0 0.00 1.50 0.00 90
20260831021534 61 202 10.0 14.0 0.00 1.50 0.00 90
20260831020547 61 201 12.0 19.0 0.00 1.50 0.00 90
20260831015529 61 212 11.0 19.0 0.00 1.50 0.00 90
20260831014543 61 360 9.0 16.0 0.00 1.50 0.00 90
20260831013527 61 205 13.0 20.0 0.00 1.50 0.00 90
20260831012541 61 227 12.0 19.0 0.00 1.50 0.00 91
20260831011610 61 222 13.0 22.0 0.00 1.50 0.00 91
20260831010532 61 360 11.0 16.0 0.00 1.50 0.00 91
20260831005606 61 178 11.0 16.0 0.00 1.50 0.00 91
20260831004550 61 204 8.0 14.0 0.00 1.50 0.00 92
20260831003542 61 177 9.0 12.0 0.00 1.50 0.00 92
20260831002526 61 180 8.0 12.0 0.00 1.50 0.00 92
20260831001541 61 173 7.0 10.0 0.00 1.50 0.00 93
20260831000551 60 198 6.0 11.0 0.00 1.50 0.00 92
20260830235532 60 194 7.0 12.0 0.00 1.50 0.00 92
20260830234605 60 220 9.0 13.0 0.00 1.50 0.00 93
20260830233529 60 209 9.0 12.0 0.00 1.50 0.00 93
20260830232542 60 360 7.0 10.0 0.00 1.50 0.00 92
20260830231525 60 206 6.0 8.0 0.00 1.50 0.00 92
20260830230529 60 204 6.0 9.0 0.00 1.50 0.00 92
20260830225522 60 198 6.0 8.0 0.00 1.50 0.00 92
20260830224523 60 200 6.0 8.0 0.00 1.50 0.00 92
20260830223536 61 173 6.0 8.0 0.00 1.50 0.00 92
20260830222520 61 173 5.0 7.0 0.00 1.50 0.00 92
20260830221533 61 131 4.0 5.0 0.00 1.50 0.00 92
20260830220518 61 128 2.0 5.0 0.00 1.50 0.00 92
20260830215531 61 126 4.0 5.0 0.00 1.50 0.30 92
20260830214536 61 243 2.0 5.0 0.00 1.50 0.30 92
20260830213520 61 250 3.0 5.0 0.00 1.50 0.30 91
20260830212528 61 252 3.0 5.0 0.00 1.50 0.30 91
20260830211542 61 255 2.0 4.0 0.04 1.50 0.30 91
20260830210525 61 255 2.0 2.0 0.08 1.50 0.30 91
20260830205529 61 255 0.0 0.0 0.67 1.50 0.30 91
20260830204521 61 255 0.0 1.0 1.38 1.50 0.30 90
20260830203525 61 255 1.0 5.0 1.38 1.50 0.30 90
20260830202538 61 255 2.0 5.0 1.38 1.50 0.30 89
20260830201521 61 257 4.0 8.0 1.34 1.46 0.29 88
20260830200531 62 269 6.0 14.0 1.30 1.42 0.28 88
20260830195604 63 234 13.0 24.0 0.67 0.79 0.16 86
20260830194547 65 166 4.0 6.0 0.00 0.12 0.02 86
20260830193539 65 167 3.0 5.0 0.00 0.12 0.02 86
20260830192543 65 169 3.0 5.0 0.00 0.12 0.02 85
20260830191536 65 168 2.0 6.0 0.00 0.12 0.02 85
20260830190518 65 170 3.0 5.0 0.00 0.12 0.02 86
20260830185527 65 182 3.0 5.0 0.00 0.79 0.02 85
20260830184532 66 181 3.0 7.0 0.00 0.79 0.02 84
20260830183524 66 185 5.0 7.0 0.00 0.79 0.02 84
20260830182558 67 196 6.0 9.0 0.00 0.79 0.02 83
20260830181521 67 185 7.0 13.0 0.00 0.79 0.02 83
20260830180535 67 194 7.0 11.0 0.00 0.79 0.02 83
20260830175520 68 225 7.0 12.0 0.00 0.79 0.02 82
20260830174520 68 225 9.0 13.0 0.00 0.79 0.02 82
20260830173532 68 202 10.0 15.0 0.00 0.79 0.02 82
20260830172545 68 172 10.0 16.0 0.00 0.79 0.02 82
20260830171529 68 219 11.0 14.0 0.00 0.79 0.02 83
20260830170533 67 182 9.0 13.0 0.00 0.79 0.02 84
20260830165525 67 195 7.0 11.0 0.00 0.79 0.02 85